When you browse on this site, cookies collect data to enhance your experience and personalize the content and advertising you see.
Visit our Privacy Policy to learn more. By continuing to use the site, you agree to this use of cookies and data.
  • In Slovakia
  • List of Countries
  • For 7 days
  • Water Temperature
  • Satellite Maps
  • Weather Map
  • Weather Widgets
  • user-avatar
    Login

    Hourly Weather Viedma

    Today, 10 December, Monday

    Time Temperature Precipitation Wind Pressure Humidity
    00:00 +21°C° 0 mm 3 mps 753 mmHg 43%
    01:00 +21°C° 0 mm 4 mps 753 mmHg 44%
    02:00 +20°C° 0 mm 4 mps 753 mmHg 45%
    03:00 +20°C° 0 mm 4 mps 753 mmHg 44%
    04:00 +20°C° 0 mm 4 mps 753 mmHg 43%
    05:00 +20°C° 0 mm 4 mps 753 mmHg 42%
    06:00 +22°C° 0 mm 5 mps 753 mmHg 36%
    07:00 +26°C° 0 mm 6 mps 753 mmHg 31%
    08:00 +28°C° 0 mm 7 mps 754 mmHg 25%
    09:00 +29°C° 0 mm 8 mps 753 mmHg 22%
    10:00 +31°C° 0 mm 8 mps 753 mmHg 19%
    11:00 +32°C° 0 mm 9 mps 753 mmHg 16%
    12:00 +33°C° 0 mm 9 mps 753 mmHg 17%
    13:00 +33°C° 0 mm 9 mps 753 mmHg 17%
    14:00 +34°C° 0 mm 9 mps 752 mmHg 17%
    15:00 +34°C° 0 mm 8 mps 752 mmHg 18%
    16:00 +33°C° 0 mm 7 mps 752 mmHg 19%
    17:00 +33°C° 0 mm 6 mps 752 mmHg 20%
    18:00 +30°C° 0 mm 5 mps 752 mmHg 26%
    19:00 +28°C° 0 mm 5 mps 752 mmHg 31%
    20:00 +26°C° 0 mm 4 mps 752 mmHg 36%
    21:00 +25°C° 0 mm 4 mps 752 mmHg 36%
    22:00 +25°C° 0 mm 4 mps 753 mmHg 36%
    23:00 +24°C° 0 mm 3 mps 753 mmHg 36%

    Tomorrow, 11 December, Tuesday

    Time Temperature Precipitation Wind Pressure Humidity
    00:00 +23°C° 0 mm 4 mps 753 mmHg 37%
    01:00 +23°C° 0 mm 4 mps 753 mmHg 38%
    02:00 +23°C° 0 mm 4 mps 752 mmHg 39%
    03:00 +23°C° 0 mm 4 mps 752 mmHg 42%
    04:00 +23°C° 0 mm 5 mps 753 mmHg 44%
    05:00 +22°C° 0 mm 5 mps 753 mmHg 47%
    06:00 +25°C° 0 mm 5 mps 753 mmHg 43%
    07:00 +26°C° 0 mm 6 mps 753 mmHg 39%
    08:00 +27°C° 0 mm 6 mps 753 mmHg 34%
    09:00 +27°C° 0 mm 6 mps 753 mmHg 34%
    10:00 +27°C° 0 mm 7 mps 753 mmHg 33%
    11:00 +28°C° 0 mm 7 mps 753 mmHg 32%
    12:00 +27°C° 0 mm 7 mps 753 mmHg 31%
    13:00 +27°C° 0 mm 6 mps 753 mmHg 30%
    14:00 +27°C° 0 mm 6 mps 753 mmHg 29%
    15:00 +26°C° 0 mm 6 mps 753 mmHg 30%
    16:00 +26°C° 0 mm 6 mps 754 mmHg 31%
    17:00 +24°C° 0 mm 7 mps 754 mmHg 32%
    18:00 +23°C° 0 mm 6 mps 754 mmHg 37%
    19:00 +21°C° 0 mm 5 mps 755 mmHg 41%
    20:00 +20°C° 0 mm 4 mps 755 mmHg 45%
    21:00 +19°C° 0 mm 3 mps 756 mmHg 47%
    22:00 +19°C° 0 mm 2 mps 756 mmHg 49%
    23:00 +19°C° 0 mm 1 mps 757 mmHg 51%

    Day after tomorrow, 12 December, Wednesday

    Time Temperature Precipitation Wind Pressure Humidity
    00:00 +19°C° 0 mm 1 mps 757 mmHg 52%
    01:00 +18°C° 0 mm 1 mps 757 mmHg 53%
    02:00 +18°C° 0 mm 1 mps 757 mmHg 54%
    03:00 +18°C° 0 mm 1 mps 757 mmHg 53%
    04:00 +18°C° 0 mm 1 mps 757 mmHg 52%
    05:00 +17°C° 0 mm 2 mps 757 mmHg 51%
    06:00 +19°C° 0 mm 2 mps 757 mmHg 45%
    07:00 +21°C° 0 mm 2 mps 758 mmHg 39%
    08:00 +24°C° 0 mm 2 mps 758 mmHg 32%
    09:00 +25°C° 0 mm 3 mps 758 mmHg 31%
    10:00 +26°C° 0 mm 3 mps 758 mmHg 29%
    11:00 +27°C° 0 mm 3 mps 757 mmHg 27%
    12:00 +27°C° 0 mm 4 mps 757 mmHg 26%
    13:00 +28°C° 0 mm 5 mps 756 mmHg 26%
    14:00 +29°C° 0 mm 6 mps 756 mmHg 25%
    15:00 +28°C° 0 mm 6 mps 755 mmHg 26%
    16:00 +28°C° 0 mm 7 mps 755 mmHg 26%
    17:00 +28°C° 0 mm 8 mps 754 mmHg 27%
    18:00 +26°C° 0 mm 8 mps 754 mmHg 32%
    19:00 +23°C° 0 mm 8 mps 754 mmHg 37%
    20:00 +22°C° 0 mm 7 mps 754 mmHg 42%
    21:00 +21°C° 0 mm 8 mps 754 mmHg 45%
    22:00 +20°C° 0 mm 8 mps 754 mmHg 48%
    23:00 +20°C° 0 mm 8 mps 754 mmHg 51%

    13 December, Thursday

    Time Temperature Precipitation Wind Pressure Humidity
    00:00 +20°C° 0 mm 7 mps 753 mmHg 52%
    01:00 +18°C° 0 mm 7 mps 753 mmHg 53%
    02:00 +19°C° 0 mm 6 mps 752 mmHg 54%
    03:00 +19°C° 0 mm 6 mps 752 mmHg 53%
    04:00 +19°C° 0 mm 6 mps 752 mmHg 53%
    05:00 +20°C° 0 mm 6 mps 752 mmHg 53%
    06:00 +22°C° 0.1 mm 6 mps 752 mmHg 46%
    07:00 +24°C° 0.1 mm 7 mps 752 mmHg 39%
    08:00 +26°C° 0.1 mm 8 mps 752 mmHg 32%
    09:00 +28°C° 0 mm 9 mps 752 mmHg 31%
    10:00 +31°C° 0 mm 10 mps 751 mmHg 30%
    11:00 +32°C° 0 mm 11 mps 751 mmHg 28%
    12:00 +33°C° 0 mm 10 mps 750 mmHg 27%
    13:00 +33°C° 0 mm 10 mps 749 mmHg 25%
    14:00 +33°C° 0 mm 9 mps 749 mmHg 24%
    15:00 +32°C° 0.2 mm 9 mps 749 mmHg 26%
    16:00 +31°C° 0.2 mm 8 mps 749 mmHg 29%
    17:00 +28°C° 0.2 mm 8 mps 749 mmHg 32%
    18:00 +27°C° 0 mm 6 mps 749 mmHg 37%
    19:00 +25°C° 0 mm 5 mps 750 mmHg 43%
    20:00 +22°C° 0 mm 4 mps 750 mmHg 49%
    21:00 +21°C° 0 mm 4 mps 751 mmHg 50%
    22:00 +21°C° 0 mm 5 mps 751 mmHg 52%
    23:00 +20°C° 0 mm 6 mps 751 mmHg 54%

    14 December, Friday

    Time Temperature Precipitation Wind Pressure Humidity
    00:00 +19°C° 0 mm 6 mps 752 mmHg 56%
    01:00 +19°C° 0 mm 6 mps 752 mmHg 58%
    02:00 +17°C° 0 mm 5 mps 752 mmHg 60%
    03:00 +17°C° 0 mm 6 mps 753 mmHg 60%
    04:00 +16°C° 0 mm 6 mps 753 mmHg 59%
    05:00 +16°C° 0 mm 7 mps 754 mmHg 59%
    06:00 +17°C° 0 mm 8 mps 755 mmHg 52%
    07:00 +18°C° 0 mm 8 mps 755 mmHg 45%
    08:00 +18°C° 0 mm 9 mps 756 mmHg 38%
    09:00 +20°C° 0 mm 8 mps 756 mmHg 36%
    10:00 +21°C° 0 mm 7 mps 756 mmHg 35%
    11:00 +22°C° 0 mm 7 mps 756 mmHg 33%
    12:00 +22°C° 0 mm 6 mps 756 mmHg 31%
    13:00 +22°C° 0 mm 6 mps 756 mmHg 30%
    14:00 +22°C° 0 mm 6 mps 756 mmHg 28%
    15:00 +22°C° 0 mm 5 mps 756 mmHg 26%
    16:00 +22°C° 0 mm 4 mps 756 mmHg 24%
    17:00 +22°C° 0 mm 4 mps 756 mmHg 22%
    18:00 +21°C° 0 mm 4 mps 756 mmHg 25%
    19:00 +20°C° 0 mm 3 mps 756 mmHg 28%
    20:00 +19°C° 0 mm 3 mps 756 mmHg 30%
    21:00 +18°C° 0 mm 4 mps 756 mmHg 40%
    22:00 +16°C° 0 mm 5 mps 756 mmHg 51%
    23:00 +16°C° 0 mm 6 mps 756 mmHg 61%

    15 December, Saturday

    Time Temperature Precipitation Wind Pressure Humidity
    00:00 +15°C° 0 mm 6 mps 756 mmHg 61%
    01:00 +15°C° 0 mm 6 mps 755 mmHg 61%
    02:00 +15°C° 0 mm 6 mps 755 mmHg 62%
    03:00 +15°C° 0 mm 6 mps 755 mmHg 61%
    04:00 +15°C° 0 mm 6 mps 754 mmHg 61%
    05:00 +16°C° 0 mm 7 mps 754 mmHg 60%
    06:00 +20°C° 0 mm 7 mps 754 mmHg 49%
    07:00 +23°C° 0 mm 7 mps 754 mmHg 37%
    08:00 +27°C° 0 mm 7 mps 754 mmHg 25%
    09:00 +28°C° 0 mm 7 mps 754 mmHg 24%
    10:00 +29°C° 0 mm 7 mps 753 mmHg 22%
    11:00 +32°C° 0 mm 7 mps 753 mmHg 20%
    12:00 +30°C° 0 mm 7 mps 753 mmHg 22%
    13:00 +30°C° 0 mm 7 mps 752 mmHg 23%
    14:00 +30°C° 0 mm 7 mps 752 mmHg 25%
    15:00 +29°C° 0 mm 6 mps 752 mmHg 25%
    16:00 +29°C° 0 mm 5 mps 751 mmHg 25%
    17:00 +28°C° 0 mm 4 mps 751 mmHg 25%
    18:00 +27°C° 0 mm 4 mps 751 mmHg 28%
    19:00 +25°C° 0 mm 4 mps 751 mmHg 31%
    20:00 +23°C° 0 mm 5 mps 751 mmHg 34%
    21:00 +22°C° 0 mm 5 mps 751 mmHg 36%
    22:00 +22°C° 0 mm 5 mps 750 mmHg 38%
    23:00 +21°C° 0 mm 5 mps 750 mmHg 40%
    Show more